Overview Statistics Trail Chart Weather Telemetry Raw packets
 

This is the latest recevied weather packets stored in our database for station/object KV9E. If no packets are shown the sender has not sent any weather packets the latest 10 day(s).

<< 10 11 12 13 14 15 16 >>
Time Temp. Humidity Pressure Rain* Wind** Luminosity Snow
1788544838 32.78° C 60% 1017.3 hPa 0 mm - 162 W/m² -
1788544532 32.22° C 61% 1017.4 hPa 0 mm - 421 W/m² -
1788544231 32.22° C 61% 1017.4 hPa 0 mm - 572 W/m² -
1788543926 32.78° C 60% 1017.4 hPa 0 mm - 612 W/m² -
1788543623 32.78° C 57% 1017.5 hPa 0 mm - 596 W/m² -
1788543323 32.78° C 58% 1017.7 hPa 0 mm - 621 W/m² -
1788543018 32.22° C 60% 1017.6 hPa 0 mm - 615 W/m² -
1788542714 32.78° C 60% 1017.7 hPa 0 mm - 634 W/m² -
1788542413 32.78° C 60% 1017.7 hPa 0 mm - 619 W/m² -
1788542109 32.22° C 61% 1018 hPa 0 mm - 625 W/m² -
1788541804 32.22° C 62% 1017.8 hPa 0 mm - 598 W/m² -
1788541499 31.67° C 63% 1017.8 hPa 0 mm - 577 W/m² -
1788541195 31.67° C 62% 1017.9 hPa 0 mm - 571 W/m² -
1788540894 31.67° C 64% 1017.9 hPa 0 mm - 556 W/m² -
1788540593 31.11° C 64% 1018 hPa 0 mm - 546 W/m² -
1788540288 30.56° C 64% 1018.2 hPa 0 mm - 359 W/m² -
1788539984 30.56° C 65% 1018 hPa 0 mm - 117 W/m² -
1788539684 31.11° C 64% 1018.3 hPa 0 mm - 295 W/m² -
1788539378 30.56° C 66% 1018.1 hPa 0 mm - 121 W/m² -
1788539074 30.56° C 65% 1018.1 hPa 0 mm - 127 W/m² -
1788538769 30.56° C 67% 1018.2 hPa 0 mm - 74 W/m² -
1788538464 30° C 68% 1018.4 hPa 0 mm - 80 W/m² -
1788538160 30° C 68% 1018.2 hPa 0 mm - 94 W/m² -
1788537855 30° C 69% 1018.3 hPa 0 mm - 74 W/m² -
1788537550 30° C 69% 1018.4 hPa 0 mm - 92 W/m² -

* Rain latest hour (hover to see other rain measurements)
** Current wind speed in m/s (hover to see current wind gust speed)